Lexington Weather

Lexington, Massachusetts, USA

43°F
11/27/2020 4:15am 
  • Lexington Conditions: Mist, Overcast
  • Temperature: 43.3°F / 6.3°CWarmer 2.8°F than last hour.
  • Dew Point: 42.8°FIncreased 3.1°Fsince last hour.
  • Relative Humidity: 98%Increased 1.0% since last hour.
  • Wind: Calm, 10-min avg: Calm, gust: None
  • Barometer: 29.97 in Steady
  • Visibility: ¾ mile
  • Rain Today: 0.00 in
  •   
Southeast Middlesex County - Special Weather Statement
 - SEE ALL NEARBY ALERTS -

Regional Weather Roundup
for Boston / Norton, MA

        
000
ASUS41 KBOX 240604
RWRBOX

REGIONAL WEATHER ROUNDUP
NATIONAL WEATHER SERVICE BOSTON/NORTON MA
100 AM EST TUE NOV 24 2020

NOTE:  "FAIR" INDICATES FEW OR NO CLOUDS BELOW 12,000 FEET WITH NO 
SIGNIFICANT WEATHER AND/OR OBSTRUCTIONS TO VISIBILITY.

MAZALL-240700-
EASTERN MASSACHUSETTS
  
CITY           SKY/WX    TMP DP  RH WIND       PRES   REMARKS
BOSTON         CLEAR     36  24  62 W15G21    30.01R WCI  27          
6HR MIN TEMP:  36; 6HR MAX TEMP:  42;                                

BEVERLY        CLEAR     36  25  64 W13G22    29.98R WCI  27          
LAWRENCE       CLEAR     35  25  66 W9G18     30.01R WCI  28          
BEDFORD        CLEAR     34  24  67 NW9       30.00R WCI  27          
BLUE HILL        N/A     32  24  72 NW15G29   29.97R WCI  22          
NORWOOD        CLEAR     37  23  56 W12       30.02R WCI  29          
MARSHFIELD     CLEAR     37  25  60 W8G17     29.99S WCI  31          
PLYMOUTH       CLEAR     35  24  64 W13       30.00R WCI  26          
TAUNTON        CLEAR     37  24  59 NW9       30.01R WCI  30          
NEW BEDFORD    CLEAR     36  25  64 NW7       30.02R WCI  30          
$$

MAZALL-240700-
CAPE COD AND THE ISLANDS
  
CITY           SKY/WX    TMP DP  RH WIND       PRES   REMARKS
FALMOUTH       CLEAR     36  27  69 NW10      29.99R WCI  28          
HYANNIS        CLEAR     38  26  62 NW14G22   29.98R WCI  30          
CHATHAM        CLEAR     39  27  62 NW10G20   29.98R                  
NANTUCKET      CLEAR     40  27  59 NW17G33   30.00R WCI  31          
MARTHAS VNYRD  CLEAR     38  26  62 NW14G21   30.01R WCI  30          
$$
 
MAZALL-240700-
CENTRAL AND WESTERN MASSACHUSETTS
  
CITY           SKY/WX    TMP DP  RH WIND       PRES   REMARKS
WORCESTER      CLEAR     33  22  63 W12G20    30.00R WCI  24          
6HR MIN TEMP:  33; 6HR MAX TEMP:  36;                                

FITCHBURG      CLEAR     33  24  69 W8        30.03R WCI  26          
ORANGE         CLEAR     35  23  61 NW8       30.03S WCI  29          
SPRINGFIELD    CLEAR     33  23  65 W10       30.06R WCI  25          
WESTFIELD      CLEAR     32  25  75 VRB3      30.08R                  
NORTH ADAMS    CLOUDY    34  25  69 W10       30.08R WCI  26          
PITTSFIELD     CLEAR     29  25  85 W10       30.05R WCI  20          
$$
 
RIZALL-240700-
RHODE ISLAND
  
CITY           SKY/WX    TMP DP  RH WIND       PRES   REMARKS
PROVIDENCE     CLEAR     37  24  59 NW9       30.05R WCI  30          
6HR MIN TEMP:  36; 6HR MAX TEMP:  41;                                

NEWPORT        CLEAR     37  25  61 NW15G24   30.02R WCI  28          
BLOCK ISLAND   CLEAR     37  25  61 NW20G32   30.07R WCI  27          
SMITHFIELD     CLEAR     34  24  67 NW8       30.02R WCI  27          
WESTERLY       CLEAR     37  24  59 VRB7      30.07R WCI  32          
$$
 
CTZALL-240700-
CONNECTICUT
  
CITY           SKY/WX    TMP DP  RH WIND       PRES   REMARKS
BRADLEY INTL   CLEAR     35  25  66 W13       30.09S WCI  26          
6HR MIN TEMP:  35; 6HR MAX TEMP:  40;                                

HARTFORD       CLEAR     37  26  64 W8        30.11R WCI  31          
BRIDGEPORT     MOCLDY    37  29  72 W3        30.13R                  
DANBURY        MOCLDY    31  27  85 CALM      30.11S                  
GROTON         CLEAR     37  26  64 NW10      30.08R WCI  30          
NEW HAVEN      CLEAR     40  29  64 NW6       30.11R                  
CHESTER        FAIR      36  25  64 NW10      30.08S WCI  28          
MERIDEN        CLEAR     37  25  61 NW9       30.11R WCI  30          
WILLIMANTIC    CLEAR     35  24  64 W6        30.07S WCI  30          
OXFORD         PTCLDY    34  28  79 CALM      30.10R                  
$$

MEZ002-015-021-024-NHZ003-005-008-011-012-014-VTZ005-008-240700-
NORTHERN NEW ENGLAND
  
CITY           SKY/WX    TMP DP  RH WIND       PRES   REMARKS
PORTLAND ME    CLEAR     33  24  69 W14       29.91R WCI  23          
6HR MIN TEMP:  33; 6HR MAX TEMP:  37;                                

BANGOR ME      CLOUDY    35  23  61 NW15G30   29.79R WCI  25          
CONCORD NH     CLOUDY    35  23  61 NW15G22   29.99R WCI  25          
MANCHESTER NH  PTCLDY    36  23  59 NW7       29.99R WCI  30          
NASHUA NH      CLEAR     35  25  66 NW12G21   30.02R WCI  27          
PORTSMOUTH NH  CLEAR     35  22  59 NW15G22   29.95  WCI  26          
JAFFREY NH     PTCLDY    34  22  61 VRB5G18   30.00R WCI  30          
KEENE NH       CLEAR     26  23  88 CALM      30.04                   
BURLINGTON VT  CLOUDY    36  26  67 NW12      30.08S WCI  28          
MT. WASHINGTON NOT AVBL                                               
$$

NYZ052-076-240700-
EASTERN NEW YORK
  
CITY           SKY/WX    TMP DP  RH WIND       PRES   REMARKS
ALBANY         PTCLDY    27  24  89 CALM      30.13R                  
6HR MIN TEMP:  25; 6HR MAX TEMP:  34;                                

NEW YORK CITY  PTCLDY    45  30  55 NW14      30.15R                  
6HR MIN TEMP:  45; 6HR MAX TEMP:  46;                                

$$
 
ANZALL-240700-
MARINE OBSERVATIONS
  
STATION/POSITION TIME  TEMP    WIND        PRES    VSBY  WAVE
                       AIR SEA DIR/SP/G                  HT/PER
                 (UTC) (F)     (DEG/KT/KT) (MB)    (MI)  (FT/S)
BOSTON BUOY      0540   40 51  300/ 23/ 31 1015.9R
BUZZARDS BAY     0500          310/ 21/ 23 1017.3R
NANTUCKET SOUND  0540      51  310/ 21/ 27   N/A
MASS BAY-STELLWA NOT AVBL
ISLE OF SHOALS   0500   38     300/ 23/ 26 1013.2R
S OF BLOCK IS    0526      57                N/A           8/ 7
$$

......................KEY.........................
  SKY/WX - SKY CONDITION/PRESENT WEATHER
  TMP    - TEMPERATURE IN FAHRENHEIT
  DWPT   - DEWPOINT IN FAHRENHEIT
  RH     - RELATIVE HUMIDITY IN PERCENT
  WIND   - DIRECTION AND SPEED IN MPH
  PRES   - MEAN SEA LEVEL PRESSURE IN INCHES OF HG
  WCI    - WIND CHILL INDEX
  VSB    - VISIBILITY IN MILES
  HX     - HEAT INDEX
  TC     - TEMPERATURE IN CELSIUS
  VRB    - VARIABLE WIND DIRECTION
  N/A    - NOT AVAILABLE
  
      

Other recent Regional Weather Roundups

Fri Nov 27, 1:04am

Fri Nov 27, 12:04am

Thu Nov 26, 11:04pm

Thu Nov 26, 10:04pm

Thu Nov 26, 9:04pm

Thu Nov 26, 8:04pm

Thu Nov 26, 7:04pm

Thu Nov 26, 6:04pm

Thu Nov 26, 5:04pm

Thu Nov 26, 4:04pm

Thu Nov 26, 2:04pm

Thu Nov 26, 1:04pm

Thu Nov 26, 12:04pm

Thu Nov 26, 11:04am

Thu Nov 26, 10:04am

Thu Nov 26, 9:04am

Thu Nov 26, 8:04am

Thu Nov 26, 7:04am

Thu Nov 26, 6:04am

Thu Nov 26, 5:04am

Thu Nov 26, 4:04am

Thu Nov 26, 3:04am

Thu Nov 26, 2:04am

Thu Nov 26, 1:04am

Thu Nov 26, 12:04am

Wed Nov 25, 11:04pm

Wed Nov 25, 10:04pm

Wed Nov 25, 9:04pm

Wed Nov 25, 8:04pm

Wed Nov 25, 7:04pm

Wed Nov 25, 6:04pm

Wed Nov 25, 5:04pm

Wed Nov 25, 4:04pm

Wed Nov 25, 3:05pm

Wed Nov 25, 2:04pm

Wed Nov 25, 1:04pm

Wed Nov 25, 12:05pm

Wed Nov 25, 11:04am

Wed Nov 25, 10:04am

Wed Nov 25, 9:04am

Wed Nov 25, 8:04am

Wed Nov 25, 7:04am

Wed Nov 25, 6:04am

Wed Nov 25, 5:04am

Wed Nov 25, 4:04am

Wed Nov 25, 3:04am

Wed Nov 25, 2:04am

Wed Nov 25, 1:04am

Wed Nov 25, 12:04am

Tue Nov 24, 11:04pm

Tue Nov 24, 10:04pm

Tue Nov 24, 9:04pm

Tue Nov 24, 8:04pm

Tue Nov 24, 7:04pm

Tue Nov 24, 6:04pm

Tue Nov 24, 5:04pm

Tue Nov 24, 4:05pm

Tue Nov 24, 3:05pm

Tue Nov 24, 2:05pm

Tue Nov 24, 1:05pm

Tue Nov 24, 12:04pm

Tue Nov 24, 11:04am

Tue Nov 24, 10:04am

Tue Nov 24, 9:04am

Tue Nov 24, 8:04am

Tue Nov 24, 7:04am

Tue Nov 24, 6:04am

Tue Nov 24, 5:04am

Tue Nov 24, 4:05am

Tue Nov 24, 3:04am

Tue Nov 24, 2:04am

Tue Nov 24, 12:05am

Mon Nov 23, 11:04pm

Mon Nov 23, 10:04pm

Mon Nov 23, 9:04pm

Mon Nov 23, 8:04pm

Mon Nov 23, 7:04pm

Mon Nov 23, 6:04pm

Mon Nov 23, 5:04pm

Mon Nov 23, 4:04pm

Mon Nov 23, 3:04pm

Mon Nov 23, 2:04pm

Mon Nov 23, 1:04pm

Mon Nov 23, 12:04pm

Mon Nov 23, 11:04am

Mon Nov 23, 10:04am

Mon Nov 23, 9:04am

Mon Nov 23, 8:05am

Mon Nov 23, 7:04am

Mon Nov 23, 6:04am

Mon Nov 23, 5:04am

Mon Nov 23, 4:04am

Mon Nov 23, 3:04am

Mon Nov 23, 2:04am

Mon Nov 23, 1:04am

Mon Nov 23, 12:05am

Sun Nov 22, 11:04pm

Sun Nov 22, 10:04pm

Sun Nov 22, 9:04pm

Sun Nov 22, 8:05pm

Sun Nov 22, 7:04pm

Sun Nov 22, 6:04pm

Sun Nov 22, 5:04pm

Sun Nov 22, 4:04pm

Sun Nov 22, 3:04pm

Sun Nov 22, 2:04pm

Sun Nov 22, 1:05pm

Sun Nov 22, 12:04pm

Sun Nov 22, 11:04am

Sun Nov 22, 10:05am

Sun Nov 22, 9:04am

Sun Nov 22, 8:04am

Sun Nov 22, 7:04am

Sun Nov 22, 6:04am

Sun Nov 22, 5:04am

Sun Nov 22, 4:04am

Sun Nov 22, 3:04am

Sun Nov 22, 2:04am

Sun Nov 22, 1:04am

Sun Nov 22, 12:04am

Sat Nov 21, 11:04pm

Sat Nov 21, 10:04pm

Sat Nov 21, 9:04pm

Sat Nov 21, 8:05pm

Sat Nov 21, 7:04pm

Sat Nov 21, 6:04pm

Sat Nov 21, 5:04pm

Sat Nov 21, 4:05pm

Sat Nov 21, 3:04pm

Sat Nov 21, 2:04pm

Sat Nov 21, 1:05pm

Sat Nov 21, 12:04pm

Sat Nov 21, 11:04am

Sat Nov 21, 10:04am

Sat Nov 21, 9:04am

Sat Nov 21, 8:04am

Sat Nov 21, 7:04am

Sat Nov 21, 6:04am

Sat Nov 21, 5:04am

Sat Nov 21, 4:04am

Sat Nov 21, 3:04am

Sat Nov 21, 2:04am

Sat Nov 21, 1:04am

Sat Nov 21, 12:04am

Fri Nov 20, 11:04pm

Fri Nov 20, 10:04pm

Fri Nov 20, 9:04pm

Fri Nov 20, 8:04pm

Fri Nov 20, 7:04pm

Fri Nov 20, 6:04pm

Fri Nov 20, 5:04pm

Fri Nov 20, 4:05pm

Fri Nov 20, 3:05pm

Fri Nov 20, 2:04pm

Fri Nov 20, 1:04pm

Fri Nov 20, 12:04pm

Fri Nov 20, 11:04am

Fri Nov 20, 10:04am

Fri Nov 20, 9:04am

Fri Nov 20, 8:04am

Fri Nov 20, 7:04am

Fri Nov 20, 6:04am

Fri Nov 20, 5:04am

Fri Nov 20, 4:04am

Meta data:

ID: f4ac0ffb-75b7-44d6-b5f7-269bba2cf1c9
Link: https://api.weather.gov/products/f4ac0ffb-75b7-44d6-b5f7-269bba2cf1c9